Location: Newark
(36.0000°N, 138.0000°E)
Time: 20:41:28
(UTC+00:00)

OTV 5 (USA 277) - Visible Passes

Search period start: 17 October 2019 00:00
Search period end: 27 October 2019 00:00
Orbit: 310 x 324 km, 54.5° (Epoch: 08 October)

Date Brightness Start Highest point End Pass type
(mag) Time Alt. Az. Time Alt. Az. Time Alt. Az.
18 Oct ? 19:45:24 10° N 19:47:17 17° NE 19:49:11 10° E visible
19 Oct ? 19:59:38 12° NNW 20:02:00 45° NE 20:04:36 10° ESE visible
20 Oct ? 20:14:21 14° WNW 20:16:32 45° SW 20:19:07 10° SSE visible
21 Oct ? 18:58:15 16° E 18:58:15 16° E 18:59:08 10° E visible
21 Oct ? 20:29:21 10° W 20:30:54 14° SW 20:32:25 10° SSW visible
22 Oct ? 19:13:13 18° SE 19:13:13 18° SE 19:14:06 10° SE visible
26 Oct ? 09:02:40 10° SSE 09:03:49 15° SE 09:03:49 15° SE visible
